User: anonymous   Login
Location: Oshawa
(43.9000°N, 78.8670°W)
Time: 12:02:21
(UTC-04:00)
Language:

Cosmos 1408 Rocket - Orbit

View from above orbital plane
View from above orbital plane
View from above satellite
View from above satellite

Ground track
Ground track

The orbit data is extracted from the following two-line orbital elements,

1 13553U 82092B   16177.14573307  .00000074  00000-0  59355-5 0  9993
2 13553  82.5679 206.7115 0022448 141.3240 276.8367 14.84061558824086
Epoch (UTC): 25 June 2016 03:29:51
Eccentricity: 0.0022448
inclination: 82.5679°
perigee height: 601 km
apogee height: 632 km
right ascension of ascending node: 206.7115°
argument of perigee: 141.3240°
revolutions per day: 14.84061558
mean anomaly at epoch: 276.8367°
orbit number at epoch: 82408

The dashed part of the orbit path shows where the satellite is in the earth's shadow,  

DLR